Location: Bakhuizen
(52.8696°N, 5.4575°E)
Time: 20:03:58
(UTC+00:00)

Cosmos 773 Rocket - Pass Details

Date: 25 September 2021
Orbit: 745 x 777 km, 74.1° (Epoch: 27 October)

Event Time Altitude Azimuth Distance (km) Brightness Sun altitude
Rises 20:23:21 0° 318° (NW) 3,248 8.5 -25.6°
Reaches altitude 10° 20:28:25 10° 276° (W) 2,322 7.2 -26.2°
Maximum altitude 20:28:55 10° 271° (W) 2,312 7.1 -26.2°
Drops below altitude 10° 20:29:26 10° 265° (W) 2,322 7.1 -26.3°
Sets 20:34:30 0° 223° (SW) 3,247 7.3 -26.9°
